This demonstration page uses our WeatherBlox Daily Observations layout. Learn more.

39.29038, -76.61219

Hourly Observations for July 17, 2019

Temp ( °F °C ) Dew Point ( °F °C ) Humidity (%) Winds ( mph kmh ) Pressure ( in mb ) Visibility ( mi km ) Precip ( " mm )
12:54 am 00:54 undefined 83 28.3 73 22.8 72 72 undefined N/A 30 1016 N/A 0 0
1:54 am 01:54 undefined 83 28.3 72 22.2 70 70 undefined N/A 30 1016 N/A 0 0
2:54 am 02:54 undefined 83 28.3 72 22.2 70 70 undefined N/A 29.97 1015 N/A 0 0
3:54 am 03:54 undefined 81 27.2 73 22.8 77 77 undefined N/A 29.97 1015 N/A 0 0
4:54 am 04:54 undefined 80 26.7 72 22.2 76 76 undefined N/A 29.97 1015 N/A 0 0
5:54 am 05:54 undefined 79 26.1 72 22.2 79 79 undefined N/A 29.97 1015 N/A 0 0
6:54 am 06:54 undefined 80 26.7 72 22.2 76 76 undefined N/A 29.97 1015 N/A 0 0
7:54 am 07:54 undefined 83 28.3 73 22.8 72 72 undefined N/A 29.97 1015 N/A 0 0
8:54 am 08:54 undefined 86 30 74 23.3 67 67 undefined N/A 29.97 1015 N/A 0 0
9:54 am 09:54 undefined 91 32.8 76 24.4 61 61 undefined N/A 29.97 1015 N/A 0 0
10:54 am 10:54 undefined 94 34.4 76 24.4 56 56 undefined N/A 29.94 1014 N/A 0 0
11:54 am 11:54 undefined 95 35 70 21.1 44 44 undefined N/A 29.94 1014 N/A 0 0
12:54 pm 12:54 undefined 97 36.1 66 18.9 36 36 undefined N/A 29.91 1013 N/A 0 0
1:54 pm 13:54 undefined 98 36.7 74 23.3 46 46 undefined N/A 29.91 1013 N/A 0 0
2:54 pm 14:54 undefined 96 35.6 74 23.3 49 49 undefined N/A 29.88 1012 N/A 0 0
3:54 pm 15:54 undefined 96 35.6 73 22.8 47 47 undefined N/A 29.85 1011 N/A 0 0
4:54 pm 16:54 undefined 96 35.6 72 22.2 46 46 undefined N/A 29.83 1010 N/A 0 0
5:54 pm 17:54 undefined 93 33.9 72 22.2 50 50 undefined N/A 29.83 1010 N/A 0 0
6:54 pm 18:54 undefined 76 24.4 72 22.2 88 88 undefined N/A 29.8 1009 N/A 0.69 17.526
7:54 pm 19:54 undefined 76 24.4 72 22.2 88 88 undefined N/A 29.88 1012 N/A 0.08 2.032
8:54 pm 20:54 undefined 77 25 73 22.8 88 88 undefined N/A 29.88 1012 N/A 0 0
9:54 pm 21:54 undefined 78 25.6 73 22.8 85 85 undefined N/A 29.88 1012 N/A 0 0
10:54 pm 22:54 undefined 77 25 73 22.8 88 88 undefined N/A 29.88 1012 N/A 0 0
11:54 pm 23:54 undefined 78 25.6 73 22.8 85 85 undefined N/A 29.85 1011 N/A 0 0

Powered by AerisWeather